TimeEST,TemperatureF,Dew PointF,Humidity,Sea Level PressureIn,VisibilityMPH,Wind Direction,Wind SpeedMPH,Gust SpeedMPH,PrecipitationIn,Events,Conditions,WindDirDegrees,DateUTC
12:54 AM,41.0,39.0,93,29.88,-9999.0,East,17.3,29.9,0.11,,Unknown,80,2013-12-15 05:54:00
1:54 AM,43.0,42.1,97,29.78,-9999.0,East,13.8,28.8,0.23,,Unknown,80,2013-12-15 06:54:00
2:54 AM,45.0,43.0,93,29.65,-9999.0,ENE,18.4,33.4,0.29,,Unknown,70,2013-12-15 07:54:00
3:54 AM,46.9,46.0,97,29.52,-9999.0,ENE,17.3,24.2,0.33,,Unknown,60,2013-12-15 08:54:00
4:54 AM,52.0,52.0,100,29.44,-9999.0,South,11.5,19.6,0.26,,Unknown,170,2013-12-15 09:54:00
5:54 AM,53.1,53.1,100,29.43,-9999.0,SSW,10.4,18.4,0.01,,Unknown,200,2013-12-15 10:54:00
6:54 AM,50.0,50.0,100,29.41,-9999.0,SW,4.6,-,0.01,,Unknown,220,2013-12-15 11:54:00
7:54 AM,42.1,41.0,96,29.41,-9999.0,NW,9.2,-,N/A,,Unknown,320,2013-12-15 12:54:00
8:54 AM,39.0,37.9,96,29.45,-9999.0,WNW,10.4,17.3,N/A,,Unknown,290,2013-12-15 13:54:00
9:54 AM,36.0,35.1,97,29.48,-9999.0,West,11.5,-,N/A,,Unknown,280,2013-12-15 14:54:00
10:54 AM,35.1,33.1,92,29.49,-9999.0,West,12.7,-,N/A,,Unknown,260,2013-12-15 15:54:00
11:54 AM,35.1,32.0,89,29.49,-9999.0,West,15.0,21.9,N/A,,Unknown,260,2013-12-15 16:54:00
12:54 PM,34.0,30.0,85,29.51,-9999.0,West,17.3,26.5,N/A,,Unknown,270,2013-12-15 17:54:00
1:54 PM,36.0,30.9,82,29.55,-9999.0,West,13.8,25.3,N/A,,Unknown,280,2013-12-15 18:54:00
2:54 PM,37.0,30.9,79,29.59,-9999.0,West,13.8,23.0,N/A,,Unknown,280,2013-12-15 19:54:00
3:54 PM,37.0,30.0,76,29.64,-9999.0,West,12.7,21.9,N/A,,Unknown,280,2013-12-15 20:54:00
4:54 PM,36.0,30.0,79,29.68,-9999.0,West,16.1,21.9,N/A,,Unknown,270,2013-12-15 21:54:00
5:54 PM,37.0,28.9,73,29.71,-9999.0,WNW,10.4,-,N/A,,Unknown,290,2013-12-15 22:54:00
6:54 PM,37.0,28.9,73,29.74,-9999.0,West,11.5,20.7,N/A,,Unknown,270,2013-12-15 23:54:00
7:54 PM,37.0,27.0,67,29.76,-9999.0,West,13.8,20.7,N/A,,Unknown,270,2013-12-16 00:54:00
8:54 PM,36.0,24.1,62,29.78,-9999.0,West,11.5,21.9,N/A,,Unknown,270,2013-12-16 01:54:00
9:54 PM,36.0,21.9,57,29.80,-9999.0,West,15.0,25.3,N/A,,Unknown,280,2013-12-16 02:54:00
10:54 PM,37.0,23.0,57,29.81,-9999.0,West,11.5,19.6,N/A,,Unknown,270,2013-12-16 03:54:00
11:54 PM,37.0,23.0,57,29.80,-9999.0,West,9.2,-,N/A,,Unknown,270,2013-12-16 04:54:00